sat.trackr.live / text

‹ back to catalog

IOD-2

NORAD 64538 · 2025-135L

PAYLOAD ACTIVE UNKNOWN

§ Identity

Operator
Country
SPN
Launch date
2025-06-23
Launch site
AFWTR
Launch vehicle
Mass (kg)
RCS (m²)

External: N2YO · Heavens-Above · Gunter

§ Orbital elements

Epoch: 2026-09-21T20:16:04.617696Z

Period
94.67 min
Inclination
97.4776°
Eccentricity
0.0004345
Mean motion
15.20997136 rev/d
Perigee alt
499.8 km
Apogee alt
505.8 km
Semi-major
6,881.0 km
B*
1.2475e-4
RAAN
18.6343°
Arg perigee
180.8197°
Mean anomaly
179.3032°
Rev number
6,951

§ Raw data

IOD-21 64538U 25135L   26264.84449789  .00002696  00000+0  12475-3 0  99992 64538  97.4776  18.6343 0004345 180.8197 179.3032 15.20997136 69512

JSON: /api/v1/satellites/64538 · /tle

For live sub-satellite position, see the globe view (requires WebGL).

§ Visibility from observer

Set your observer location to see the next 7 days of passes ≥ 10°. The values pass through the URL so the page stays shareable.

No JS? Fill the form by hand. The geolocation button needs JavaScript.

§ Radio — SatNOGS DB

ModeDescriptionDownlinkUplink
FM S-band telemetry 2.273 GHz

1 transmitter · refreshed weekly from db.satnogs.org